Weather History for Pierre, SD

Change the Weather History Date:

Friday, April 4, 2014

  Actual Average Record
Temperature  
Mean Temperature 36 °F 42 °F  
Max Temperature 42 °F 54 °F 78 °F (1991)
Min Temperature 30 °F 30 °F 12 °F (1968)
Degree Days  
Heating Degree Days 29 23  
Month to date heating degree days 148 94  
Since 1 July heating degree days 7216 6539  
Cooling Degree Days 0 0  
Month to date cooling degree days 0 0  
Year to date cooling degree days 0 0  
Moisture  
Dew Point 25 °F    
Average Humidity 69    
Maximum Humidity 85    
Minimum Humidity 53    
Precipitation  
Precipitation 0.00 in 0.05 in 1.28 in (1986)
Month to date precipitation 0.05 0.19  
Year to date precipitation 1.61 2.43  
Snow  
Snow 0.00 in 0.20 in 11.60 in (1957)
Month to date snowfall T 0.7  
Since 1 July snowfall 34.6 28.5  
Snow Depth 2.00 in    
Sea Level Pressure  
Sea Level Pressure 30.08 in    
Wind  
Wind Speed 9 mph (NNE)    
Max Wind Speed 16 mph    
Max Gust Speed 22 mph    
Visibility 10 miles    
Events      
T = Trace of Precipitation, MM = Missing Value Source: NWS Daily Summary

Daily Weather History Graph

Daily Weather History Graph

Search for Another Location

Airport:

Trip Planner

Search our weather history database for the weather conditions in past years. The results will help you decide how hot, cold, wet, or windy it might be!

Date:

Astronomy

Apr. 04, 2014 Rise Set
Actual Time 7:16 AM CDT 8:12 PM CDT
Civil Twilight 6:47 AM CDT 8:41 PM CDT
Nautical Twilight 6:12 AM CDT 9:17 PM CDT
Astronomical Twilight 5:35 AM CDT 9:54 PM CDT
Moon 10:26 AM CDT (4/4) 12:40 AM CDT (4/4)
Length of Visible Light 13h 54m
Length of Day
12h 55m
Waxing Crescent, 25% of the Moon is Illuminated
Apr 4
Waxing Crescent
Apr 7
First Quarter
Apr 15
Full
Apr 22
Last Quarter
Apr 29
New

Hourly Weather History & Observations

Time (CDT) Temp. Windchill Dew Point Humidity Pressure Visibility Wind Dir Wind Speed Gust Speed Precip Events Conditions
12:53 AM 30.9 °F 20.7 °F 24.1 °F 76% 30.09 in 10.0 mi NNW 13.8 mph - N/A   Overcast
1:37 AM 30.9 °F 22.2 °F 24.1 °F 76% 30.05 in 10.0 mi NNW 10.4 mph - N/A   Overcast
1:53 AM 30.9 °F 21.7 °F 24.1 °F 76% 30.10 in 10.0 mi NNW 11.5 mph - N/A   Overcast
2:53 AM 30.9 °F 21.7 °F 25.0 °F 79% 30.10 in 10.0 mi NNW 11.5 mph - N/A   Overcast
3:53 AM 30.9 °F 23.5 °F 25.0 °F 79% 30.10 in 10.0 mi NNW 8.1 mph - N/A   Overcast
4:53 AM 30.0 °F 22.4 °F 26.1 °F 85% 30.10 in 9.0 mi NNW 8.1 mph - N/A   Overcast
5:53 AM 30.9 °F 21.7 °F 25.0 °F 79% 30.10 in 10.0 mi NW 11.5 mph - N/A   Overcast
6:53 AM 30.9 °F 22.2 °F 24.1 °F 76% 30.11 in 10.0 mi NNW 10.4 mph - N/A   Overcast
7:00 AM 30.9 °F 22.8 °F 24.1 °F 76% 30.06 in 10.0 mi North 9.2 mph - N/A   Overcast
7:53 AM 30.0 °F 20.5 °F 24.1 °F 79% 30.12 in 8.0 mi North 11.5 mph - N/A   Overcast
8:03 AM 30.0 °F 21.7 °F 23.0 °F 75% 30.08 in 8.0 mi North 9.2 mph - N/A   Overcast
8:53 AM 30.9 °F 22.8 °F 23.0 °F 72% 30.14 in 9.0 mi North 9.2 mph - N/A   Overcast
9:18 AM 30.9 °F 22.2 °F 23.0 °F 72% 30.09 in 9.0 mi North 10.4 mph - N/A   Overcast
9:53 AM 30.9 °F 22.2 °F 23.0 °F 72% 30.14 in 9.0 mi North 10.4 mph - N/A   Mostly Cloudy
10:09 AM 32.0 °F 22.5 °F 24.1 °F 73% 30.09 in 9.0 mi NNE 12.7 mph - N/A   Scattered Clouds
10:53 AM 32.0 °F 23.0 °F 23.0 °F 69% 30.15 in 9.0 mi North 11.5 mph - N/A   Clear
11:53 AM 34.0 °F 28.0 °F 24.1 °F 67% 30.15 in 10.0 mi North 6.9 mph - N/A   Clear
12:53 PM 35.1 °F 32.2 °F 25.0 °F 67% 30.14 in 10.0 mi NE 3.5 mph - N/A   Clear
1:53 PM 37.0 °F 33.3 °F 26.1 °F 65% 30.12 in 10.0 mi ENE 4.6 mph - N/A   Clear
2:53 PM 39.0 °F 34.0 °F 27.0 °F 62% 30.09 in 10.0 mi North 6.9 mph - N/A   Clear
3:53 PM 39.0 °F - 26.1 °F 60% 30.07 in 10.0 mi Calm Calm - N/A   Clear
4:53 PM 41.0 °F 35.8 °F 27.0 °F 57% 30.05 in 10.0 mi East 8.1 mph - N/A   Clear
5:53 PM 42.1 °F 37.7 °F 27.0 °F 55% 30.04 in 10.0 mi ESE 6.9 mph - N/A   Clear
6:53 PM 42.1 °F 35.2 °F 26.1 °F 53% 30.03 in 10.0 mi ESE 12.7 mph - N/A   Clear
7:53 PM 37.0 °F 30.4 °F 26.1 °F 65% 30.03 in 10.0 mi ESE 9.2 mph - N/A   Clear
8:53 PM 34.0 °F 27.2 °F 25.0 °F 70% 30.02 in 10.0 mi ESE 8.1 mph - N/A   Clear
9:53 PM 34.0 °F 26.6 °F 25.0 °F 70% 30.02 in 10.0 mi ESE 9.2 mph - N/A   Clear
10:53 PM 34.0 °F 25.0 °F 24.1 °F 67% 30.01 in 10.0 mi ESE 12.7 mph - N/A   Clear
11:53 PM 35.1 °F 27.4 °F 24.1 °F 64% 29.99 in 10.0 mi SE 10.4 mph - N/A   Clear